Time,TemperatureF,DewpointF,PressureIn,WindDirection,WindDirectionDegrees,WindSpeedMPH,WindSpeedGustMPH,Humidity,HourlyPrecipIn,Conditions,Clouds,dailyrainin,SoftwareType,DateUTC
2013-05-22 00:02:00,56.0,55.0,29.87,SSW,200,0.0,0.0,96,0.00,,,0.65,,2013-05-22 05:02:00,
2013-05-22 00:12:00,56.0,55.0,29.87,SSW,200,0.0,0.0,96,0.00,,,0.64,,2013-05-22 05:12:00,
2013-05-22 00:21:00,56.0,55.0,29.87,SSW,200,0.0,0.0,96,0.00,,,0.64,,2013-05-22 05:21:00,
2013-05-22 00:32:00,56.0,55.0,29.87,SSW,200,0.0,0.0,96,0.00,,,0.64,,2013-05-22 05:32:00,
2013-05-22 00:42:00,56.0,55.0,29.87,SSW,200,0.0,0.0,97,0.00,,,0.64,,2013-05-22 05:42:00,
2013-05-22 00:51:00,56.0,55.0,29.87,SSW,200,0.0,0.0,97,0.00,,,0.64,,2013-05-22 05:51:00,
2013-05-22 01:01:00,56.0,55.0,29.87,SSW,200,0.0,0.0,97,0.00,,,0.64,,2013-05-22 06:01:00,
2013-05-22 01:11:00,56.0,55.0,29.87,SSW,200,0.0,0.0,97,0.00,,,0.64,,2013-05-22 06:11:00,
2013-05-22 01:21:00,56.0,55.0,29.87,SSW,200,0.0,0.0,97,0.00,,,0.64,,2013-05-22 06:21:00,
2013-05-22 01:31:00,55.0,54.0,29.87,SSW,200,0.0,0.0,97,0.00,,,0.64,,2013-05-22 06:31:00,
2013-05-22 01:42:00,55.0,54.0,29.87,SSW,200,0.0,0.0,97,0.00,,,0.64,,2013-05-22 06:42:00,
2013-05-22 01:52:00,55.0,54.0,29.87,SSW,200,0.0,0.0,97,0.00,,,0.64,,2013-05-22 06:52:00,
2013-05-22 02:01:00,55.0,54.0,29.87,SSW,200,0.0,0.0,97,0.00,,,0.64,,2013-05-22 07:01:00,
2013-05-22 02:11:00,55.0,54.0,29.87,SSW,200,0.0,0.0,97,0.00,,,0.64,,2013-05-22 07:11:00,
2013-05-22 02:21:00,55.0,54.0,29.86,SSW,200,0.0,0.0,97,0.00,,,0.64,,2013-05-22 07:21:00,
2013-05-22 02:32:00,54.0,53.0,29.85,SSW,200,0.0,0.0,97,0.00,,,0.64,,2013-05-22 07:32:00,
2013-05-22 02:42:00,54.0,53.0,29.85,SSW,200,0.0,0.0,97,0.00,,,0.64,,2013-05-22 07:42:00,
2013-05-22 02:52:00,54.0,53.0,29.86,SSW,200,0.0,0.0,97,0.00,,,0.64,,2013-05-22 07:52:00,
2013-05-22 03:02:00,54.0,53.0,29.86,SSW,200,0.0,0.0,97,0.00,,,0.64,,2013-05-22 08:02:00,
2013-05-22 03:11:00,54.0,53.0,29.86,SSW,200,0.0,0.0,97,0.00,,,0.64,,2013-05-22 08:11:00,
2013-05-22 03:22:00,54.0,53.0,29.86,SSW,200,0.0,0.0,97,0.00,,,0.64,,2013-05-22 08:22:00,
2013-05-22 03:31:00,53.0,52.0,29.86,SSW,200,0.0,0.0,97,0.00,,,0.64,,2013-05-22 08:31:00,
2013-05-22 03:42:00,53.0,52.0,29.86,SSW,200,0.0,0.0,97,0.00,,,0.64,,2013-05-22 08:42:00,
2013-05-22 03:52:00,53.0,52.0,29.86,SSW,200,0.0,0.0,97,0.00,,,0.64,,2013-05-22 08:52:00,
2013-05-22 04:01:00,53.0,52.0,29.86,South,184,0.0,0.0,97,0.00,,,0.64,,2013-05-22 09:01:00,
2013-05-22 04:12:00,53.0,52.0,29.86,South,184,0.0,0.0,97,0.00,,,0.64,,2013-05-22 09:12:00,
2013-05-22 04:22:00,54.0,53.0,29.86,SE,138,0.0,2.0,97,0.01,,,0.65,,2013-05-22 09:22:00,
2013-05-22 04:33:00,54.0,53.0,29.86,SSW,203,0.0,0.0,97,0.01,,,0.65,,2013-05-22 09:33:00,
2013-05-22 04:42:00,54.0,53.0,29.86,SSW,203,0.0,0.0,97,0.01,,,0.65,,2013-05-22 09:42:00,
2013-05-22 04:53:00,54.0,53.0,29.86,SSE,155,0.0,1.0,97,0.01,,,0.65,,2013-05-22 09:53:00,
2013-05-22 05:03:00,54.0,53.0,29.87,SW,228,0.0,0.0,97,0.01,,,0.65,,2013-05-22 10:03:00,
2013-05-22 05:12:00,54.0,53.0,29.87,SW,228,0.0,0.0,97,0.01,,,0.65,,2013-05-22 10:12:00,
2013-05-22 05:22:00,54.0,53.0,29.87,SW,228,0.0,0.0,97,0.00,,,0.65,,2013-05-22 10:22:00,
2013-05-22 05:33:00,53.0,52.0,29.88,SW,228,0.0,0.0,97,0.00,,,0.65,,2013-05-22 10:33:00,
2013-05-22 05:42:00,53.0,52.0,29.88,SW,228,0.0,0.0,97,0.00,,,0.65,,2013-05-22 10:42:00,
2013-05-22 05:52:00,53.0,52.0,29.88,South,184,0.0,0.0,97,0.00,,,0.65,,2013-05-22 10:52:00,
2013-05-22 06:02:00,53.0,52.0,29.87,South,184,0.0,0.0,97,0.00,,,0.65,,2013-05-22 11:02:00,
2013-05-22 06:11:00,53.0,52.0,29.87,South,184,0.0,0.0,97,0.00,,,0.65,,2013-05-22 11:11:00,
2013-05-22 06:21:00,53.0,52.0,29.88,SE,143,0.0,1.0,97,0.00,,,0.65,,2013-05-22 11:21:00,
2013-05-22 06:32:00,53.0,52.0,29.88,South,169,0.0,0.0,97,0.00,,,0.65,,2013-05-22 11:32:00,
2013-05-22 06:42:00,53.0,52.0,29.88,South,169,0.0,0.0,97,0.00,,,0.65,,2013-05-22 11:42:00,
2013-05-22 06:52:00,53.0,52.0,29.90,SSE,163,0.0,0.0,97,0.00,,,0.65,,2013-05-22 11:52:00,
2013-05-22 07:02:00,53.0,52.0,29.92,SSW,208,0.0,1.0,97,0.00,,,0.65,,2013-05-22 12:02:00,
2013-05-22 07:12:00,53.0,52.0,29.92,SSW,208,0.0,1.0,97,0.00,,,0.65,,2013-05-22 12:12:00,
2013-05-22 07:22:00,53.0,52.0,29.91,SSW,202,0.0,0.0,97,0.00,,,0.65,,2013-05-22 12:22:00,
2013-05-22 07:32:00,54.0,53.0,29.91,South,190,0.0,1.0,97,0.00,,,0.65,,2013-05-22 12:32:00,
2013-05-22 07:42:00,54.0,53.0,29.91,South,190,0.0,1.0,97,0.00,,,0.65,,2013-05-22 12:42:00,
2013-05-22 07:52:00,54.0,53.0,29.91,SW,214,0.0,2.0,98,0.00,,,0.65,,2013-05-22 12:52:00,
2013-05-22 08:01:00,55.0,54.0,29.92,SSW,210,0.0,1.0,98,0.00,,,0.65,,2013-05-22 13:01:00,
2013-05-22 08:11:00,55.0,54.0,29.92,SSW,210,0.0,1.0,98,0.00,,,0.65,,2013-05-22 13:11:00,
2013-05-22 08:22:00,56.0,55.0,29.92,SW,222,0.0,2.0,98,0.00,,,0.65,,2013-05-22 13:22:00,
2013-05-22 08:32:00,56.0,55.0,29.91,WSW,238,0.0,3.0,98,0.00,,,0.65,,2013-05-22 13:32:00,
2013-05-22 08:42:00,56.0,55.0,29.91,WSW,238,0.0,3.0,98,0.00,,,0.65,,2013-05-22 13:42:00,
2013-05-22 08:52:00,57.0,56.0,29.92,WSW,243,0.0,2.0,98,0.00,,,0.65,,2013-05-22 13:52:00,
2013-05-22 09:02:00,58.0,57.0,29.92,WSW,238,0.0,1.0,97,0.00,,,0.65,,2013-05-22 14:02:00,
2013-05-22 09:11:00,58.0,57.0,29.92,WSW,238,0.0,1.0,97,0.00,,,0.65,,2013-05-22 14:11:00,
2013-05-22 09:21:00,59.0,58.0,29.93,WSW,246,1.0,3.0,96,0.00,,,0.65,,2013-05-22 14:21:00,
2013-05-22 09:32:00,60.0,58.0,29.94,SSW,200,0.0,5.0,94,0.00,,,0.60,,2013-05-22 14:32:00,
2013-05-22 09:42:00,60.0,58.0,29.94,SSW,200,0.0,5.0,94,0.00,,,0.60,,2013-05-22 14:42:00,
2013-05-22 09:52:00,62.0,59.0,29.95,West,276,0.0,2.0,90,0.00,,,0.60,,2013-05-22 14:52:00,
2013-05-22 10:01:00,64.0,60.0,29.95,ESE,121,0.0,2.0,86,0.00,,,0.60,,2013-05-22 15:01:00,
2013-05-22 10:11:00,64.0,60.0,29.95,ESE,121,0.0,2.0,86,0.00,,,0.60,,2013-05-22 15:11:00,
2013-05-22 10:21:00,65.0,60.0,29.95,WSW,237,0.0,3.0,83,0.00,,,0.60,,2013-05-22 15:21:00,
2013-05-22 10:32:00,67.0,61.0,29.95,NW,309,0.0,2.0,81,0.00,,,0.60,,2013-05-22 15:32:00,
2013-05-22 10:42:00,67.0,61.0,29.95,NW,309,0.0,2.0,81,0.00,,,0.60,,2013-05-22 15:42:00,
2013-05-22 10:53:00,69.0,60.0,29.95,SSW,194,0.0,2.0,73,0.00,,,0.60,,2013-05-22 15:53:00,
2013-05-22 11:03:00,70.0,61.0,29.95,NNW,334,0.0,2.0,72,0.00,,,0.60,,2013-05-22 16:03:00,
2013-05-22 11:12:00,70.0,61.0,29.95,NNW,334,0.0,2.0,72,0.00,,,0.60,,2013-05-22 16:12:00,
2013-05-22 11:23:00,71.0,60.0,29.95,WSW,250,0.0,4.0,68,0.00,,,0.60,,2013-05-22 16:23:00,
2013-05-22 11:32:00,72.0,60.0,29.95,WNW,302,0.0,5.0,67,0.00,,,0.56,,2013-05-22 16:32:00,
2013-05-22 11:42:00,72.0,60.0,29.95,WNW,302,0.0,5.0,67,0.00,,,0.56,,2013-05-22 16:42:00,
2013-05-22 11:52:00,73.0,59.0,29.96,North,352,0.0,2.0,62,0.00,,,0.56,,2013-05-22 16:52:00,
2013-05-22 12:02:00,74.0,59.0,29.96,NNE,20,0.0,3.0,59,0.00,,,0.56,,2013-05-22 17:02:00,
2013-05-22 12:11:00,74.0,59.0,29.96,North,349,0.0,3.0,59,0.00,,,0.56,,2013-05-22 17:11:00,
2013-05-22 12:23:00,74.0,59.0,29.96,North,349,0.0,3.0,59,0.00,,,0.56,,2013-05-22 17:23:00,
2013-05-22 12:33:00,75.0,58.0,29.96,NW,310,0.0,2.0,55,0.00,,,0.38,,2013-05-22 17:33:00,
2013-05-22 12:42:00,75.0,58.0,29.96,NW,310,0.0,2.0,55,0.00,,,0.38,,2013-05-22 17:42:00,
2013-05-22 12:53:00,76.0,58.0,29.95,South,179,0.0,4.0,54,0.00,,,0.38,,2013-05-22 17:53:00,
2013-05-22 13:02:00,77.0,59.0,29.96,SSW,201,0.0,3.0,53,0.00,,,0.38,,2013-05-22 18:02:00,
2013-05-22 13:14:00,77.0,59.0,29.96,SSW,201,0.0,3.0,53,0.00,,,0.38,,2013-05-22 18:14:00,
2013-05-22 13:22:00,78.0,59.0,29.95,North,359,0.0,1.0,53,0.00,,,0.38,,2013-05-22 18:22:00,
2013-05-22 13:33:00,78.0,58.0,29.95,SE,128,0.0,2.0,51,0.00,,,0.38,,2013-05-22 18:33:00,
2013-05-22 13:42:00,78.0,58.0,29.95,SE,128,0.0,2.0,51,0.00,,,0.38,,2013-05-22 18:42:00,
2013-05-22 13:52:00,77.0,59.0,29.95,NNW,341,0.0,5.0,54,0.00,,,0.38,,2013-05-22 18:52:00,
2013-05-22 14:02:00,78.0,59.0,29.95,NNW,336,0.0,4.0,53,0.00,,,0.38,,2013-05-22 19:02:00,
2013-05-22 14:11:00,78.0,59.0,29.95,NNW,336,0.0,4.0,53,0.00,,,0.38,,2013-05-22 19:11:00,
2013-05-22 14:21:00,79.0,60.0,29.96,East,86,0.0,4.0,52,0.00,,,0.38,,2013-05-22 19:21:00,
2013-05-22 14:32:00,78.0,59.0,29.95,SSE,166,0.0,5.0,52,0.00,,,0.33,,2013-05-22 19:32:00,
2013-05-22 14:42:00,78.0,57.0,29.95,West,280,0.0,4.0,49,0.00,,,0.33,,2013-05-22 19:42:00,
2013-05-22 14:52:00,78.0,57.0,29.95,West,280,0.0,4.0,49,0.00,,,0.33,,2013-05-22 19:52:00,
2013-05-22 15:02:00,79.0,59.0,29.94,WNW,302,0.0,3.0,50,0.00,,,0.33,,2013-05-22 20:02:00,
2013-05-22 15:11:00,80.0,60.0,29.94,SSE,159,0.0,2.0,50,0.00,,,0.33,,2013-05-22 20:11:00,
2013-05-22 15:21:00,80.0,60.0,29.94,SSE,159,0.0,2.0,50,0.00,,,0.33,,2013-05-22 20:21:00,
2013-05-22 15:32:00,79.0,58.0,29.93,WSW,252,0.0,5.0,49,0.00,,,0.14,,2013-05-22 20:32:00,
2013-05-22 15:42:00,80.0,58.0,29.93,ENE,72,0.0,1.0,47,0.00,,,0.14,,2013-05-22 20:42:00,
2013-05-22 15:51:00,80.0,58.0,29.93,ENE,72,0.0,1.0,47,0.00,,,0.14,,2013-05-22 20:51:00,
2013-05-22 16:01:00,80.0,61.0,29.93,NNW,340,0.0,3.0,52,0.00,,,0.14,,2013-05-22 21:01:00,
2013-05-22 16:11:00,80.0,61.0,29.93,NNW,340,0.0,3.0,52,0.00,,,0.14,,2013-05-22 21:11:00,
2013-05-22 16:21:00,80.0,59.0,29.92,West,274,0.0,2.0,49,0.00,,,0.14,,2013-05-22 21:21:00,
2013-05-22 16:32:00,81.0,59.0,29.92,NNW,339,0.0,2.0,47,0.00,,,0.01,,2013-05-22 21:32:00,
2013-05-22 16:42:00,81.0,59.0,29.92,NNW,339,0.0,2.0,47,0.00,,,0.01,,2013-05-22 21:42:00,
2013-05-22 16:52:00,81.0,59.0,29.92,NNW,339,0.0,2.0,47,0.00,,,0.01,,2013-05-22 21:52:00,
2013-05-22 17:03:00,80.0,58.0,29.91,WNW,294,0.0,3.0,47,0.00,,,0.01,,2013-05-22 22:03:00,
2013-05-22 17:13:00,80.0,58.0,29.91,WNW,294,0.0,3.0,47,0.00,,,0.01,,2013-05-22 22:13:00,
2013-05-22 17:22:00,80.0,58.0,29.91,West,274,0.0,3.0,47,0.00,,,0.01,,2013-05-22 22:22:00,
2013-05-22 17:33:00,80.0,57.0,29.91,WSW,239,0.0,4.0,46,0.00,,,0.01,,2013-05-22 22:33:00,
2013-05-22 17:42:00,79.0,57.0,29.91,West,266,0.0,3.0,47,0.00,,,0.01,,2013-05-22 22:42:00,
2013-05-22 17:52:00,79.0,57.0,29.91,West,266,0.0,3.0,47,0.00,,,0.01,,2013-05-22 22:52:00,
2013-05-22 18:02:00,79.0,58.0,29.90,WSW,238,0.0,1.0,49,0.00,,,0.01,,2013-05-22 23:02:00,
2013-05-22 18:12:00,79.0,58.0,29.90,WSW,238,0.0,1.0,49,0.00,,,0.01,,2013-05-22 23:12:00,
2013-05-22 18:21:00,80.0,60.0,29.90,SW,218,0.0,1.0,50,0.00,,,0.01,,2013-05-22 23:21:00,
2013-05-22 18:32:00,78.0,58.0,29.90,WSW,250,0.0,3.0,50,0.00,,,0.01,,2013-05-22 23:32:00,
2013-05-22 18:42:00,78.0,58.0,29.90,WSW,250,0.0,3.0,50,0.00,,,0.01,,2013-05-22 23:42:00,
2013-05-22 18:52:00,78.0,59.0,29.90,West,261,0.0,4.0,52,0.00,,,0.01,,2013-05-22 23:52:00,
2013-05-22 19:01:00,77.0,57.0,29.90,SW,218,0.0,2.0,51,0.00,,,0.01,,2013-05-23 00:01:00,
2013-05-22 19:11:00,77.0,57.0,29.90,SW,218,0.0,2.0,51,0.00,,,0.01,,2013-05-23 00:11:00,
2013-05-22 19:22:00,76.0,58.0,29.91,SW,219,0.0,3.0,53,0.00,,,0.01,,2013-05-23 00:22:00,
2013-05-22 19:31:00,76.0,57.0,29.91,SW,218,0.0,3.0,52,0.00,,,0.01,,2013-05-23 00:31:00,
2013-05-22 19:42:00,76.0,57.0,29.91,SW,218,0.0,3.0,52,0.00,,,0.01,,2013-05-23 00:42:00,
2013-05-22 19:51:00,75.0,58.0,29.91,SW,217,0.0,0.0,56,0.00,,,0.01,,2013-05-23 00:51:00,
2013-05-22 20:01:00,75.0,58.0,29.91,SW,235,0.0,1.0,56,0.00,,,0.01,,2013-05-23 01:01:00,
2013-05-22 20:11:00,75.0,58.0,29.91,SW,235,0.0,1.0,56,0.00,,,0.01,,2013-05-23 01:11:00,
2013-05-22 20:21:00,74.0,59.0,29.93,SSW,207,0.0,0.0,59,0.00,,,0.01,,2013-05-23 01:21:00,
2013-05-22 20:32:00,73.0,58.0,29.93,SSW,203,0.0,0.0,60,0.00,,,0.01,,2013-05-23 01:32:00,
2013-05-22 20:42:00,72.0,59.0,29.93,SSW,203,0.0,0.0,63,0.00,,,0.01,,2013-05-23 01:42:00,
2013-05-22 20:52:00,72.0,59.0,29.93,SSW,203,0.0,0.0,63,0.00,,,0.01,,2013-05-23 01:52:00,
2013-05-22 21:01:00,70.0,58.0,29.94,SSW,203,0.0,0.0,66,0.00,,,0.01,,2013-05-23 02:01:00,
2013-05-22 21:11:00,70.0,58.0,29.94,SSW,203,0.0,0.0,66,0.00,,,0.01,,2013-05-23 02:11:00,
2013-05-22 21:21:00,70.0,60.0,29.94,SSW,204,0.0,0.0,70,0.00,,,0.01,,2013-05-23 02:21:00,
2013-05-22 21:32:00,69.0,59.0,29.94,SSW,204,0.0,0.0,71,0.00,,,0.01,,2013-05-23 02:32:00,
2013-05-22 21:42:00,69.0,59.0,29.94,SSW,204,0.0,0.0,71,0.00,,,0.01,,2013-05-23 02:42:00,
2013-05-22 21:51:00,69.0,59.0,29.94,SSW,204,0.0,0.0,71,0.00,,,0.01,,2013-05-23 02:51:00,
2013-05-22 22:01:00,67.0,58.0,29.95,SSW,204,0.0,0.0,74,0.00,,,0.01,,2013-05-23 03:01:00,
2013-05-22 22:11:00,67.0,58.0,29.95,SSW,204,0.0,0.0,74,0.00,,,0.01,,2013-05-23 03:11:00,
2013-05-22 22:21:00,67.0,60.0,29.96,SSW,204,0.0,0.0,77,0.00,,,0.01,,2013-05-23 03:21:00,
2013-05-22 22:33:00,67.0,60.0,29.96,SSW,204,0.0,0.0,77,0.00,,,0.01,,2013-05-23 03:33:00,
2013-05-22 22:43:00,67.0,60.0,29.96,SSW,204,0.0,0.0,77,0.00,,,0.01,,2013-05-23 03:43:00,
2013-05-22 22:53:00,66.0,59.0,29.96,SSW,204,0.0,0.0,79,0.00,,,0.01,,2013-05-23 03:53:00,
2013-05-22 23:03:00,65.0,59.0,29.96,SSW,205,0.0,0.0,81,0.00,,,0.01,,2013-05-23 04:03:00,
2013-05-22 23:12:00,65.0,59.0,29.96,SSW,205,0.0,0.0,81,0.00,,,0.01,,2013-05-23 04:12:00,
2013-05-22 23:22:00,65.0,60.0,29.97,SSW,204,0.0,0.0,83,0.00,,,0.01,,2013-05-23 04:22:00,
2013-05-22 23:33:00,64.0,59.0,29.97,SSW,204,0.0,0.0,83,0.00,,,0.01,,2013-05-23 04:33:00,
2013-05-22 23:43:00,64.0,59.0,29.97,SSW,204,0.0,0.0,83,0.00,,,0.01,,2013-05-23 04:43:00,
2013-05-22 23:52:00,64.0,59.0,29.97,SSW,204,0.0,0.0,83,0.00,,,0.01,,2013-05-23 04:52:00,